Location: Fort Wayne
(41.1310°N, 85.1290°W)
Time: 04:07:34
(UTC-04:00)

IDEFIX/ARIANE 42P - Visible Passes

Search period start: 24 March 2017 00:00
Search period end: 03 April 2017 00:00
Orbit: 785 x 803 km, 98.2° (Epoch: 20 March)

Date Brightness Start Highest point End Pass type
(mag) Time Alt. Az. Time Alt. Az. Time Alt. Az.
24 Mar 6.0 20:24:46 10° WSW 20:27:09 13° W 20:29:32 10° WNW visible
25 Mar 4.9 06:55:40 10° NE 07:00:06 28° E 07:04:31 10° SSE visible
26 Mar 5.6 06:28:30 10° NE 06:31:31 15° E 06:34:30 10° SE visible
29 Mar 5.4 06:42:24 10° NE 06:46:19 21° E 06:50:14 10° SE visible
30 Mar 5.9 06:16:08 10° ENE 06:17:40 11° E 06:19:13 10° ESE visible
01 Apr 4.9 06:56:35 10° NE 07:01:06 29° E 07:05:35 10° SSE visible
02 Apr 5.5 06:29:20 10° NE 06:32:31 16° E 06:35:41 10° SE visible
